📊 Raw Sensor Data
Showing records 36851 to 36875 of 84,903 total
| ID | Distance (ft) | Battery V | Battery A | Int Temp (°F) | Int Humid (%) | Ext Temp (°F) | Solar V | RSSI | SNR | Time Stamp |
|---|---|---|---|---|---|---|---|---|---|---|
| 48065 | 15.4 | 3.94 | 5 | 97 | 42 | 90 | 5.20 | -70 | 8 | 08/02/2025 02:15 PM |
| 48064 | 15.4 | 3.94 | 0 | 96 | 42 | 86 | 5.10 | -71 | 8 | 08/02/2025 02:00 PM |
| 48063 | 15.4 | 3.94 | 0 | 95 | 42 | 87 | 5.20 | -71 | 7 | 08/02/2025 01:45 PM |
| 48062 | 15.4 | 3.94 | 5 | 94 | 42 | 86 | 5.10 | -71 | 7 | 08/02/2025 01:30 PM |
| 48061 | 15.4 | 3.94 | 5 | 93 | 42 | 87 | 5.10 | -70 | 7 | 08/02/2025 01:15 PM |
| 48060 | 15.4 | 3.94 | 0 | 89 | 42 | 83 | 5.10 | -71 | 8 | 08/02/2025 12:45 PM |
| 48059 | 15.5 | 3.94 | 0 | 88 | 42 | 84 | 5.10 | -70 | 8 | 08/02/2025 12:30 PM |
| 48058 | 15.5 | 3.99 | 5 | 87 | 42 | 86 | 5.10 | -71 | 8 | 08/02/2025 12:15 PM |
| 48057 | 15.6 | 3.94 | 5 | 85 | 42 | 84 | 5.10 | -70 | 8 | 08/02/2025 12:00 PM |
| 48056 | 15.5 | 3.94 | 0 | 83 | 42 | 84 | 5.10 | -69 | 8 | 08/02/2025 11:45 AM |
| 48055 | 15.5 | 3.94 | 0 | 82 | 42 | 82 | 5.10 | -71 | 7 | 08/02/2025 11:30 AM |
| 48054 | 15.5 | 3.94 | 5 | 80 | 43 | 80 | 5.10 | -71 | 7 | 08/02/2025 11:15 AM |
| 48053 | 15.5 | 3.94 | 0 | 78 | 43 | 77 | 5.10 | -68 | 7 | 08/02/2025 11:00 AM |
| 48052 | 15.5 | 4.04 | 5 | 77 | 43 | 77 | 5.10 | -69 | 7 | 08/02/2025 10:45 AM |
| 48051 | 15.5 | 3.94 | 5 | 76 | 43 | 77 | 5.10 | -71 | 7 | 08/02/2025 10:30 AM |
| 48050 | 15.8 | 4.01 | 5 | 75 | 43 | 79 | 5.10 | -69 | 8 | 08/02/2025 10:15 AM |
| 48049 | 15.6 | 3.94 | 5 | 74 | 43 | 75 | 5.10 | -70 | 8 | 08/02/2025 10:00 AM |
| 48048 | 15.5 | 3.94 | 0 | 73 | 43 | 74 | 5.10 | -70 | 8 | 08/02/2025 09:45 AM |
| 48047 | 15.5 | 3.94 | 0 | 72 | 43 | 75 | 5.10 | -71 | 7 | 08/02/2025 09:30 AM |
| 48046 | 15.6 | 3.94 | 6 | 71 | 43 | 76 | 5.10 | -70 | 8 | 08/02/2025 09:15 AM |
| 48045 | 15.5 | 3.94 | 0 | 69 | 43 | 74 | 5.10 | -70 | 8 | 08/02/2025 09:00 AM |
| 48044 | 15.6 | 3.94 | 0 | 68 | 44 | 73 | 5.10 | -71 | 8 | 08/02/2025 08:45 AM |
| 48043 | 15.5 | 3.94 | 6 | 67 | 44 | 72 | 5.10 | -68 | 7 | 08/02/2025 08:30 AM |
| 48042 | 15.5 | 3.94 | 0 | 65 | 43 | 72 | 5.10 | -69 | 8 | 08/02/2025 08:15 AM |
| 48041 | 15.5 | 3.94 | 6 | 64 | 43 | 69 | 5.10 | -68 | 7 | 08/02/2025 08:00 AM |